| time (UTC) | temp F | wind direction | speed knots | gust knots | rain 1hr in | rain 24hr in | rain mn in | humidity % | barometer mb |
| 20260507113605 | 57 | 59 | 1.7 | 4.3 | 0.00 | 0.00 | 0.00 | 31 | 1016.0 |
| 20260507112915 | 56 | 102 | 1.7 | 2.6 | 0.00 | 0.00 | 0.00 | 31 | 1015.9 |
| 20260507112013 | 58 | 34 | 2.6 | 3.5 | 0.00 | 0.00 | 0.00 | 32 | 1016.0 |
| 20260507110903 | 56 | 48 | 4.3 | 4.3 | 0.00 | 0.00 | 0.00 | 33 | 1016.2 |
| 20260507110003 | 55 | 16 | 0.9 | 3.5 | 0.00 | 0.00 | 0.00 | 34 | 1016.1 |
| 20260507105403 | 53 | 5 | 2.6 | 3.5 | 0.00 | 0.00 | 0.00 | 37 | 1016.1 |
| 20260507104716 | 52 | 328 | 3.5 | 5.2 | 0.00 | 0.00 | 0.00 | 35 | 1016.1 |
| 20260507103814 | 51 | 348 | 3.5 | 5.2 | 0.00 | 0.00 | 0.00 | 42 | 1016.0 |
| 20260507102703 | 44 | 295 | 5.2 | 10.4 | 0.00 | 0.00 | 0.00 | 43 | 1016.2 |
| 20260507102013 | 42 | 220 | 1.7 | 4.3 | 0.00 | 0.00 | 0.00 | 46 | 1016.2 |
| 20260507101116 | 42 | 204 | 4.3 | 6.1 | 0.00 | 0.00 | 0.00 | 43 | 1015.9 |
| 20260507100213 | 43 | 250 | 1.7 | 5.2 | 0.00 | 0.00 | 0.00 | 44 | 1015.7 |
| 20260507095403 | 41 | 208 | 5.2 | 5.2 | 0.00 | 0.00 | 0.00 | 46 | 1015.6 |
| 20260507094717 | 41 | 220 | 3.5 | 4.3 | 0.00 | 0.00 | 0.00 | 45 | 1015.4 |
| 20260507093603 | 42 | 227 | 4.3 | 4.3 | 0.00 | 0.00 | 0.00 | 44 | 1015.3 |
| 20260507092703 | 43 | 236 | 1.7 | 5.2 | 0.00 | 0.00 | 0.00 | 43 | 1015.2 |
| 20260507092014 | 43 | 230 | 4.3 | 4.3 | 0.00 | 0.00 | 0.00 | 43 | 1015.1 |
| 20260507091116 | 44 | 253 | 1.7 | 7.0 | 0.00 | 0.00 | 0.00 | 42 | 1014.9 |
| 20260507090004 | 44 | 204 | 4.3 | 6.1 | 0.00 | 0.00 | 0.00 | 42 | 1014.8 |
| 20260507085615 | 44 | 232 | 5.2 | 6.1 | 0.00 | 0.00 | 0.00 | 41 | 1014.7 |
| 20260507084503 | 48 | 347 | 3.5 | 3.5 | 0.00 | 0.00 | 0.00 | 40 | 1014.5 |
| 20260507083605 | 46 | 316 | 0.9 | 2.6 | 0.00 | 0.00 | 0.00 | 44 | 1014.4 |
| 20260507082703 | 44 | 330 | 0.9 | 3.5 | 0.00 | 0.00 | 0.00 | 44 | 1014.3 |
| 20260507082015 | 44 | 354 | 2.6 | 2.6 | 0.00 | 0.00 | 0.00 | 47 | 1014.2 |
| 20260507081117 | 42 | 298 | 0.9 | 4.3 | 0.00 | 0.00 | 0.00 | 49 | 1014.0 |
| 20260507080003 | 38 | 150 | 0.9 | 1.7 | 0.00 | 0.00 | 0.00 | 49 | 1013.8 |
| 20260507075616 | 38 | 186 | 1.7 | 4.3 | 0.00 | 0.00 | 0.00 | 49 | 1013.7 |
| 20260507074713 | 39 | 242 | 0.9 | 4.3 | 0.00 | 0.00 | 0.00 | 48 | 1014.0 |
| 20260507073603 | 39 | 250 | 3.5 | 3.5 | 0.00 | 0.00 | 0.00 | 48 | 1014.3 |
| 20260507072913 | 40 | 244 | 2.6 | 2.6 | 0.00 | 0.00 | 0.00 | 48 | 1014.3 |
| 20260507071803 | 40 | 263 | 0.0 | 5.2 | 0.00 | 0.00 | 0.00 | 49 | 1014.4 |
| 20260507071112 | 40 | 269 | 1.7 | 5.2 | 0.00 | 0.00 | 0.00 | 48 | 1014.4 |
| 20260507070215 | 39 | 253 | 0.0 | 3.5 | 0.00 | 0.00 | 0.00 | 51 | 1014.4 |
| 20260507065405 | 41 | 123 | 1.7 | 1.7 | 0.00 | 0.00 | 0.00 | 52 | 1014.5 |
| 20260507064504 | 39 | 225 | 0.0 | 0.9 | 0.00 | 0.00 | 0.00 | 54 | 1014.5 |
| 20260507063816 | 39 | 225 | 0.9 | 0.9 | 0.00 | 0.00 | 0.00 | 55 | 1014.5 |
| 20260507062703 | 38 | 135 | 0.9 | 0.9 | 0.00 | 0.00 | 0.00 | 59 | 1014.5 |
| 20260507061803 | 36 | 0 | 0.0 | 0.0 | 0.00 | 0.00 | 0.00 | 61 | 1014.3 |
| 20260507061113 | 35 | 0 | 0.0 | 0.0 | 0.00 | 0.00 | 0.00 | 62 | 1014.4 |
| 20260507060003 | 34 | 0 | 0.0 | 0.0 | 0.00 | 0.00 | 0.00 | 65 | 1014.4 |
| 20260507055403 | 33 | 120 | 0.0 | 0.9 | 0.00 | 0.00 | 0.00 | 66 | 1014.2 |
| 20260507054714 | 33 | 121 | 0.0 | 0.9 | 0.00 | 0.00 | 0.00 | 68 | 1014.2 |
| 20260507053817 | 32 | 112 | 0.0 | 0.9 | 0.00 | 0.00 | 0.00 | 69 | 1014.3 |
| 20260507052703 | 30 | 112 | 0.0 | 0.9 | 0.00 | 0.00 | 0.00 | 73 | 1014.2 |
| 20260507052016 | 28 | 112 | 0.0 | 0.9 | 0.00 | 0.00 | 0.00 | 74 | 1014.2 |
| 20260507050903 | 25 | 0 | 0.0 | 0.0 | 0.00 | 0.00 | 0.00 | 76 | 1014.2 |
| 20260507050216 | 24 | 0 | 0.0 | 0.0 | 0.00 | 0.00 | 0.00 | 76 | 1014.1 |
| 20260507045618 | 23 | 0 | 0.0 | 0.0 | 0.00 | 0.00 | 0.00 | 76 | 1014.0 |
| 20260507044503 | 23 | 0 | 0.0 | 0.0 | 0.00 | 0.00 | 0.00 | 76 | 1014.0 |
| 20260507043603 | 23 | 0 | 0.0 | 0.0 | 0.00 | 0.00 | 0.00 | 76 | 1014.0 |
| 20260507042703 | 23 | 0 | 0.0 | 0.0 | 0.00 | 0.00 | 0.00 | 76 | 1014.0 |
| 20260507041803 | 23 | 225 | 0.0 | 1.7 | 0.00 | 0.00 | 0.00 | 76 | 1013.9 |
| 20260507041114 | 23 | 39 | 0.0 | 1.7 | 0.00 | 0.00 | 0.00 | 76 | 1013.9 |
| 20260507040217 | 22 | 43 | 1.7 | 1.7 | 0.00 | 0.00 | 0.00 | 76 | 1014.0 |
| 20260507035613 | 22 | 25 | 0.9 | 1.7 | 0.00 | 0.00 | 0.00 | 76 | 1013.9 |
| 20260507034503 | 22 | 322 | 0.0 | 0.9 | 0.00 | 0.00 | 0.00 | 77 | 1013.7 |
| 20260507033813 | 21 | 67 | 0.0 | 0.9 | 0.00 | 0.00 | 0.00 | 75 | 1013.7 |
| 20260507032703 | 21 | 0 | 0.0 | 0.0 | 0.00 | 0.00 | 0.00 | 74 | 1013.8 |
| 20260507032013 | 22 | 0 | 0.0 | 0.0 | 0.00 | 0.00 | 0.00 | 74 | 1013.8 |
| 20260507030903 | 22 | 0 | 0.0 | 0.0 | 0.00 | 0.00 | 0.00 | 74 | 1013.6 |
| 20260507030003 | 22 | 135 | 0.0 | 1.7 | 0.00 | 0.00 | 0.00 | 73 | 1013.6 |
| 20260507025403 | 23 | 135 | 0.0 | 1.7 | 0.00 | 0.00 | 0.00 | 73 | 1013.6 |
| 20260507024503 | 23 | 67 | 0.0 | 1.7 | 0.00 | 0.00 | 0.00 | 73 | 1013.3 |
| 20260507023604 | 23 | 67 | 1.7 | 1.7 | 0.00 | 0.00 | 0.00 | 73 | 1013.3 |
| 20260507022916 | 23 | 135 | 0.0 | 1.7 | 0.00 | 0.00 | 0.00 | 73 | 1013.2 |
| 20260507021803 | 23 | 37 | 0.0 | 1.7 | 0.00 | 0.00 | 0.00 | 73 | 1013.1 |
| 20260507021116 | 23 | 31 | 1.7 | 1.7 | 0.00 | 0.00 | 0.00 | 72 | 1013.0 |
| 20260507020218 | 23 | 0 | 0.0 | 0.0 | 0.00 | 0.00 | 0.00 | 71 | 1013.1 |
| 20260507015615 | 23 | 0 | 0.0 | 0.0 | 0.00 | 0.00 | 0.00 | 71 | 1012.9 |
| 20260507014717 | 23 | 0 | 0.0 | 0.0 | 0.00 | 0.00 | 0.00 | 71 | 1013.0 |
| 20260507013603 | 24 | 0 | 0.0 | 0.0 | 0.00 | 0.00 | 0.00 | 69 | 1012.8 |
| 20260507012703 | 24 | 0 | 0.0 | 0.0 | 0.00 | 0.00 | 0.00 | 69 | 1012.8 |
| 20260507012014 | 24 | 270 | 0.0 | 0.9 | 0.00 | 0.00 | 0.00 | 68 | 1012.6 |
| 20260507010003 | 25 | 0 | 0.0 | 0.0 | 0.00 | 0.00 | 0.00 | 68 | 1012.4 |
| 20260507005615 | 25 | 0 | 0.0 | 0.0 | 0.00 | 0.00 | 0.00 | 68 | 1012.4 |
| 20260507004503 | 26 | 247 | 0.0 | 1.7 | 0.00 | 0.00 | 0.00 | 68 | 1012.3 |
| 20260507003603 | 26 | 292 | 0.0 | 1.7 | 0.00 | 0.00 | 0.00 | 68 | 1012.2 |
| 20260507002912 | 27 | 279 | 1.7 | 2.6 | 0.00 | 0.00 | 0.00 | 68 | 1012.3 |
| 20260507002015 | 26 | 289 | 2.6 | 3.5 | 0.00 | 0.00 | 0.00 | 69 | 1012.3 |
| 20260507001117 | 27 | 288 | 1.7 | 1.7 | 0.00 | 0.00 | 0.00 | 68 | 1012.4 |
| 20260507000003 | 26 | 37 | 0.9 | 1.7 | 0.00 | 0.00 | 0.00 | 68 | 1012.4 |
| 20260506235403 | 26 | 38 | 0.0 | 2.6 | 0.00 | 0.00 | 0.00 | 68 | 1012.5 |
| 20260506234503 | 26 | 22 | 0.0 | 2.6 | 0.00 | 0.00 | 0.00 | 67 | 1012.4 |
| 20260506233603 | 26 | 0 | 0.0 | 0.0 | 0.00 | 0.00 | 0.00 | 66 | 1012.5 |
| 20260506232705 | 26 | 0 | 0.0 | 0.0 | 0.00 | 0.00 | 0.00 | 66 | 1012.5 |
| 20260506232015 | 26 | 0 | 0.0 | 0.0 | 0.00 | 0.00 | 0.00 | 65 | 1012.6 |
| 20260506230903 | 27 | 0 | 0.0 | 0.0 | 0.00 | 0.00 | 0.00 | 65 | 1012.6 |
| 20260506230003 | 28 | 0 | 0.0 | 0.0 | 0.00 | 0.00 | 0.00 | 64 | 1012.6 |
| 20260506225403 | 28 | 0 | 0.0 | 0.0 | 0.00 | 0.00 | 0.00 | 64 | 1012.6 |
| 20260506224714 | 28 | 0 | 0.0 | 0.0 | 0.00 | 0.00 | 0.00 | 64 | 1012.7 |
| 20260506223816 | 28 | 32 | 0.0 | 1.7 | 0.00 | 0.00 | 0.00 | 63 | 1012.8 |
| 20260506222913 | 30 | 292 | 1.7 | 1.7 | 0.00 | 0.00 | 0.00 | 63 | 1012.8 |
| 20260506222016 | 30 | 288 | 1.7 | 7.8 | 0.00 | 0.00 | 0.00 | 63 | 1012.9 |
| 20260506220904 | 30 | 281 | 2.6 | 4.3 | 0.00 | 0.00 | 0.00 | 63 | 1012.9 |
| 20260506220215 | 29 | 319 | 2.6 | 4.3 | 0.00 | 0.00 | 0.00 | 64 | 1013.0 |
| 20260506215617 | 29 | 327 | 1.7 | 2.6 | 0.00 | 0.00 | 0.00 | 63 | 1013.0 |
| 20260506214714 | 29 | 25 | 1.7 | 1.7 | 0.00 | 0.00 | 0.00 | 63 | 1013.1 |
| 20260506213605 | 29 | 293 | 0.0 | 5.2 | 0.00 | 0.00 | 0.00 | 63 | 1013.1 |
| 20260506212703 | 30 | 296 | 5.2 | 7.0 | 0.00 | 0.00 | 0.00 | 63 | 1013.2 |
| 20260506212016 | 29 | 287 | 2.6 | 3.5 | 0.00 | 0.00 | 0.00 | 64 | 1013.2 |
| 20260506210903 | 28 | 337 | 0.9 | 1.7 | 0.00 | 0.00 | 0.00 | 63 | 1013.1 |
| 20260506210216 | 28 | 315 | 0.0 | 0.9 | 0.00 | 0.00 | 0.00 | 62 | 1012.9 |
| 20260506205403 | 28 | 135 | 0.0 | 1.7 | 0.00 | 0.00 | 0.00 | 60 | 1013.1 |
| 20260506204503 | 29 | 135 | 0.0 | 1.7 | 0.00 | 0.00 | 0.00 | 60 | 1013.0 |
| 20260506203603 | 29 | 202 | 0.0 | 0.9 | 0.00 | 0.00 | 0.00 | 59 | 1012.9 |
| 20260506202915 | 30 | 0 | 0.0 | 0.0 | 0.00 | 0.00 | 0.00 | 59 | 1012.9 |
| 20260506201803 | 30 | 349 | 0.9 | 1.7 | 0.00 | 0.00 | 0.00 | 59 | 1012.9 |
| 20260506201114 | 31 | 349 | 0.9 | 1.7 | 0.00 | 0.00 | 0.00 | 59 | 1012.9 |
| 20260506200003 | 31 | 315 | 1.7 | 2.6 | 0.00 | 0.00 | 0.00 | 58 | 1012.8 |
| 20260506195613 | 32 | 323 | 1.7 | 2.6 | 0.00 | 0.00 | 0.00 | 58 | 1012.8 |
| 20260506194716 | 32 | 311 | 1.7 | 5.2 | 0.00 | 0.00 | 0.00 | 58 | 1012.5 |
| 20260506193813 | 32 | 314 | 3.5 | 6.1 | 0.00 | 0.00 | 0.00 | 57 | 1012.4 |
| 20260506192703 | 32 | 343 | 2.6 | 3.5 | 0.00 | 0.00 | 0.00 | 56 | 1012.5 |
| 20260506191803 | 33 | 19 | 1.7 | 10.4 | 0.00 | 0.00 | 0.00 | 56 | 1012.4 |
| 20260506191115 | 33 | 360 | 0.0 | 10.4 | 0.00 | 0.00 | 0.00 | 56 | 1012.2 |
| 20260506190212 | 33 | 347 | 4.3 | 4.3 | 0.00 | 0.00 | 0.00 | 56 | 1012.2 |
| 20260506185614 | 34 | 334 | 4.3 | 4.3 | 0.00 | 0.00 | 0.00 | 56 | 1012.1 |
| 20260506184716 | 34 | 5 | 1.7 | 5.2 | 0.00 | 0.00 | 0.00 | 55 | 1012.1 |
| 20260506183604 | 34 | 334 | 0.9 | 2.6 | 0.00 | 0.00 | 0.00 | 54 | 1012.0 |
| 20260506182916 | 35 | 327 | 0.9 | 3.5 | 0.00 | 0.00 | 0.00 | 54 | 1011.9 |
| 20260506182013 | 35 | 279 | 1.7 | 2.6 | 0.00 | 0.00 | 0.00 | 53 | 1011.7 |
| 20260506180903 | 35 | 290 | 0.0 | 7.0 | 0.00 | 0.00 | 0.00 | 50 | 1011.6 |
| 20260506180213 | 36 | 279 | 3.5 | 7.0 | 0.00 | 0.00 | 0.00 | 50 | 1011.6 |
| 20260506175615 | 36 | 265 | 4.3 | 6.1 | 0.00 | 0.00 | 0.00 | 50 | 1011.5 |
| 20260506174717 | 36 | 287 | 2.6 | 7.0 | 0.00 | 0.00 | 0.00 | 49 | 1011.5 |
| 20260506173604 | 38 | 308 | 5.2 | 5.2 | 0.00 | 0.00 | 0.00 | 47 | 1011.5 |
| 20260506172703 | 38 | 299 | 2.6 | 9.6 | 0.00 | 0.00 | 0.00 | 47 | 1011.4 |
| 20260506171803 | 38 | 294 | 2.6 | 10.4 | 0.00 | 0.00 | 0.00 | 47 | 1011.4 |
| 20260506171116 | 37 | 297 | 5.2 | 12.2 | 0.00 | 0.00 | 0.00 | 48 | 1011.3 |
| 20260506170004 | 37 | 317 | 1.7 | 5.2 | 0.00 | 0.00 | 0.00 | 49 | 1011.3 |
| 20260506165615 | 37 | 284 | 5.2 | 5.2 | 0.00 | 0.00 | 0.00 | 50 | 1011.3 |
| 20260506164712 | 38 | 301 | 5.2 | 9.6 | 0.00 | 0.00 | 0.00 | 47 | 1011.2 |
| 20260506163603 | 40 | 276 | 8.7 | 8.7 | 0.00 | 0.00 | 0.00 | 45 | 1011.4 |
| 20260506162703 | 39 | 271 | 3.5 | 7.8 | 0.00 | 0.00 | 0.00 | 45 | 1011.4 |
| 20260506162015 | 40 | 282 | 4.3 | 11.3 | 0.00 | 0.00 | 0.00 | 46 | 1011.4 |
| 20260506160903 | 41 | 309 | 7.0 | 11.3 | 0.00 | 0.00 | 0.00 | 43 | 1011.4 |
| 20260506160214 | 43 | 333 | 4.3 | 4.3 | 0.00 | 0.00 | 0.00 | 43 | 1011.5 |
| 20260506155616 | 43 | 305 | 2.6 | 5.2 | 0.00 | 0.00 | 0.00 | 43 | 1011.5 |
| 20260506154713 | 44 | 356 | 1.7 | 7.0 | 0.00 | 0.00 | 0.00 | 43 | 1011.5 |
| 20260506153603 | 42 | 276 | 2.6 | 11.3 | 0.00 | 0.00 | 0.00 | 45 | 1011.4 |
| 20260506152703 | 42 | 282 | 11.3 | 11.3 | 0.00 | 0.00 | 0.00 | 45 | 1011.4 |
| 20260506151803 | 41 | 296 | 2.6 | 10.4 | 0.00 | 0.00 | 0.00 | 45 | 1011.3 |
| 20260506151113 | 42 | 299 | 3.5 | 12.2 | 0.00 | 0.00 | 0.00 | 44 | 1011.2 |
| 20260506150215 | 44 | 322 | 4.3 | 5.2 | 0.00 | 0.00 | 0.00 | 41 | 1011.2 |
| 20260506145403 | 42 | 293 | 3.5 | 8.7 | 0.00 | 0.00 | 0.00 | 42 | 1011.0 |
| 20260506144714 | 42 | 288 | 1.7 | 7.0 | 0.00 | 0.00 | 0.00 | 39 | 1011.1 |
| 20260506143605 | 44 | 298 | 0.0 | 8.7 | 0.00 | 0.00 | 0.00 | 39 | 1011.1 |
| 20260506142913 | 43 | 282 | 5.2 | 9.6 | 0.00 | 0.00 | 0.00 | 40 | 1011.2 |
| 20260506142016 | 42 | 307 | 8.7 | 9.6 | 0.00 | 0.00 | 0.00 | 39 | 1011.2 |
| 20260506140903 | 42 | 269 | 2.6 | 11.3 | 0.00 | 0.00 | 0.00 | 38 | 1011.2 |
| 20260506140215 | 42 | 273 | 11.3 | 11.3 | 0.00 | 0.00 | 0.00 | 37 | 1011.3 |
| 20260506135405 | 42 | 300 | 7.8 | 11.3 | 0.00 | 0.00 | 0.00 | 37 | 1011.1 |
| 20260506134714 | 42 | 283 | 2.6 | 11.3 | 0.00 | 0.00 | 0.00 | 39 | 1011.2 |
| 20260506133603 | 41 | 294 | 6.1 | 12.2 | 0.00 | 0.00 | 0.00 | 42 | 1011.2 |
| 20260506132914 | 40 | 301 | 1.7 | 12.2 | 0.00 | 0.00 | 0.00 | 41 | 1011.1 |
| 20260506132016 | 43 | 280 | 3.5 | 9.6 | 0.00 | 0.00 | 0.00 | 39 | 1011.1 |
| 20260506130903 | 44 | 274 | 7.0 | 11.3 | 0.00 | 0.00 | 0.00 | 40 | 1011.3 |
| 20260506130216 | 46 | 295 | 6.1 | 10.4 | 0.00 | 0.00 | 0.00 | 36 | 1011.3 |
| 20260506125613 | 47 | 313 | 1.7 | 7.0 | 0.00 | 0.00 | 0.00 | 35 | 1011.3 |
| 20260506124715 | 45 | 281 | 0.9 | 11.3 | 0.00 | 0.00 | 0.00 | 39 | 1011.2 |
| 20260506123603 | 43 | 273 | 5.2 | 7.8 | 0.00 | 0.00 | 0.00 | 41 | 1011.3 |
| 20260506122915 | 43 | 271 | 4.3 | 7.8 | 0.00 | 0.00 | 0.00 | 43 | 1011.4 |
| 20260506122017 | 43 | 261 | 7.8 | 7.8 | 0.00 | 0.00 | 0.00 | 42 | 1011.4 |
| 20260506120903 | 42 | 277 | 6.1 | 6.1 | 0.00 | 0.00 | 0.00 | 41 | 1011.3 |
| 20260506120217 | 42 | 275 | 4.3 | 7.8 | 0.00 | 0.00 | 0.00 | 42 | 1011.2 |
| 20260506115403 | 44 | 292 | 7.8 | 11.3 | 0.00 | 0.00 | 0.00 | 38 | 1011.2 |
| 20260506114503 | 43 | 293 | 6.1 | 9.6 | 0.00 | 0.00 | 0.00 | 40 | 1011.2 |